Location: Unspecified
(0.0000°N, 0.0000°E)
Time: 00:11:02
(UTC+00:00)

ISS - Visible Passes

Search period start: 02 May 2026 00:00
Search period end: 12 May 2026 00:00
Orbit: 415 x 424 km, 51.6° (Epoch: 1 May)

Date Brightness Start Highest point End Pass type
(mag) Time Alt. Az. Time Alt. Az. Time Alt. Az.
4 May -2.2 18:39:38 10° SSE 18:41:53 17° SE 18:42:18 16° ESE visible
5 May -2.0 19:27:57 10° WSW 19:30:59 32° NW 19:32:58 17° N visible
6 May -3.8 18:40:09 10° SW 18:43:29 84° NW 18:46:48 10° NE visible
8 May -1.0 05:29:20 10° N 05:32:09 25° NE 05:34:59 10° ESE visible
8 May -0.5 18:43:03 10° W 18:45:02 15° NW 18:47:01 10° NNW visible
9 May -0.2 04:43:21 10° NNE 04:44:36 12° NE 04:45:50 10° ENE visible
10 May -3.6 05:30:21 10° NW 05:33:38 52° SW 05:36:57 10° SSE visible
11 May -3.2 04:42:46 10° NNW 04:46:05 59° NE 04:49:25 10° SE visible
